Vorticity
5 7 14 -3 -10 5 10 7 3 7 10 19 25 14 -10 -5 -11 -2 -8 -12 37 24 13 8 3 13 6 9 1 6 5 9 4 6 1 6 10 1 5 5 7 8 7 5
6 24 10 -3 5 9 19 14 11 16 15 10 11 36 3 6 -1 6 3 9 16 18 23 13 12 4 11 9 9 -0 3 10 2 4 23 10 5 6 9 5 5 5 7 7
14 -13 5 10 16 16 17 18 12 16 25 7 16 20 36 0 25 13 27 -3 0 24 36 11 19 12 7 7 5 5 12 2 10 -1 1 12 2 11 12 3 8 5 6 6
-8 15 11 26 17 17 6 14 15 -10 5 13 -6 4 26 55 19 1 14 16 -5 -14 -4 32 14 8 7 14 5 -2 9 6 8 6 3 2 14 6 -4 13 10 4 6 6
12 29 16 26 -3 10 -19 17 11 7 3 14 9 30 41 42 12 35 25 -3 38 21 -5 34 9 5 6 1 11 13 9 4 8 12 8 4 7 -0 -4 -4 9 2 12 7
39 18 10 11 9 6 33 -8 44 32 23 30 13 -18 36 21 5 28 25 22 3 22 24 -8 29 2 9 8 8 9 15 9 5 4 4 2 -1 1 2 4 3 15 2 6
20 -2 -22 -28 19 39 -6 42 4 13 13 -2 25 39 -43 2 37 -1 15 17 29 14 9 20 21 6 5 8 10 8 10 11 6 10 7 10 10 9 10 10 8 16 2 -9
-5 -14 14 19 24 9 15 7 20 13 4 -13 61 11 -13 69 -0 2 33 16 19 21 34 7 8 42 -6 4 6 6 12 16 2 5 9 9 6 7 19 4 13 -0 -3 -9
24 -9 26 -3 12 5 -20 -11 30 23 46 11 6 41 -23 27 36 17 21 -4 8 15 -1 29 19 7 34 -0 8 10 7 6 2 16 7 7 6 2 12 17 5 3 12 7
9 10 13 13 -3 -2 17 -3 27 11 8 18 5 -29 -24 28 43 45 -1 24 2 34 7 18 12 4 20 29 9 3 1 -2 6 3 5 6 4 10 14 12 11 6 0 5
45 16 -65 28 1 22 29 -7 16 41 8 3 7 4 -5 15 57 30 46 17 12 12 2 7 23 16 6 -5 6 5 15 14 14 6 11 4 8 9 7 17 5 2 11 1
-23 29 -13 42 8 -27 -40 9 29 17 4 -3 11 4 -1 33 33 50 36 30 8 16 14 18 -5 29 12 8 8 11 19 9 21 17 11 11 8 8 10 13 14 10 -10 -4
1 -18 31 24 13 -34 14 26 -13 64 55 -27 29 -25 7 28 40 41 40 18 30 12 14 17 27 21 37 13 10 10 4 11 9 25 17 11 9 11 15 13 2 28 -14 11
34 22 19 -25 -22 36 -17 25 7 28 15 2 -19 11 13 13 20 44 19 42 11 5 20 10 22 18 9 6 6 9 9 7 12 12 18 16 4 13 9 11 8 8 20 8
21 7 7 52 22 3 -31 20 15 -6 47 -2 29 29 8 20 15 37 22 16 6 7 24 19 17 20 17 14 13 16 15 17 8 11 11 14 5 8 10 5 8 7 9 -6
11 -31 24 19 9 10 -25 -0 16 46 -22 17 40 24 27 6 15 7 34 34 19 4 20 21 6 14 10 11 7 7 6 18 21 16 16 19 14 12 12 17 14 13 13 21
9 15 38 -1 32 13 -19 -18 24 43 -29 -11 17 22 37 -15 -7 23 25 33 19 25 21 16 10 9 2 6 5 8 6 6 8 10 6 6 7 12 11 16 13 10 20 10
8 12 41 -7 36 10 -48 -4 44 35 -15 -32 23 21 23 25 27 29 19 21 30 20 28 18 20 21 18 16 13 8 3 7 9 16 10 12 10 4 5 7 17 17 17 8
16 3 40 13 14 8 -66 2 33 23 12 -14 13 14 25 16 14 28 7 14 8 15 9 -1 10 17 14 15 17 24 21 18 6 -1 11 13 15 9 10 13 6 14 7 17
14 -3 25 23 14 14 -42 15 44 35 1 1 13 14 10 35 -5 7 9 3 10 9 11 12 15 19 14 10 13 7 9 22 18 17 14 9 8 16 16 6 7 5 17 10
4 28 12 19 14 3 -35 26 42 36 -64 12 13 14 13 11 11 13 12 11 7 4 7 6 5 9 8 14 9 10 8 14 9 11 11 8 8 11 12 15 9 8 5 4
17 30 8 7 21 14 -33 10 28 6 15 14 15 18 18 14 15 13 15 14 10 8 11 11 11 9 32 14 6 11 10 8 11 12 16 6 7 12 9 16 3 6 11 -3
4 7 11 17 1 1 41 -14 11 11 12 10 10 12 15 15 14 13 14 12 13 11 11 3 16 10 7 12 21 17 17 13 8 15 9 14 7 12 9 9 2 -2 14 3
-1 15 10 30 -10 0 15 -0 16 12 12 12 10 13 14 14 12 11 13 15 12 14 17 9 11 10 13 5 10 27 29 3 22 7 19 12 11 4 22 6 14 -8 8 -6
9 15 -2 12 -2 25 -17 12 13 12 14 15 12 13 14 13 12 12 12 14 13 14 8 15 5 14 7 10 16 18 41 10 37 21 13 6 6 7 7 10 22 12 -3 18
15 6 6 -2 3 8 11 13 12 14 13 12 14 14 13 14 14 12 11 11 14 13 16 14 7 8 14 10 6 7 22 52 -2 17 -1 22 3 -6 18 28 14 4 22 11
Height
2983 2980 2977 2974 2972 2968 2964 2961 2955 2951 2949 2947 2942 2937 2938 2948 2950 2954 2959 2968 2974 2982 2995 3005 3014 3022 3031 3039 3047 3055 3062 3069 3075 3080 3088 3094 3100 3107 3113 3118 3124 3129 3133 3139
2980 2976 2974 2969 2966 2961 2956 2952 2945 2940 2940 2939 2933 2927 2930 2934 2939 2945 2951 2956 2962 2972 2984 2993 3003 3012 3020 3029 3039 3047 3055 3062 3070 3076 3084 3091 3099 3104 3110 3113 3118 3123 3128 3134
2977 2973 2968 2963 2958 2954 2948 2945 2939 2935 2930 2931 2925 2917 2919 2923 2928 2935 2940 2948 2952 2959 2970 2983 2992 3002 3012 3021 3030 3039 3047 3056 3063 3071 3077 3083 3090 3096 3102 3109 3114 3120 3126 3131
2972 2967 2961 2957 2953 2950 2942 2940 2935 2930 2929 2926 2924 2910 2913 2914 2918 2924 2931 2938 2945 2952 2961 2971 2983 2993 3004 3013 3023 3032 3040 3049 3056 3063 3072 3079 3086 3093 3100 3107 3112 3116 3121 3127
2965 2959 2954 2951 2950 2947 2939 2935 2928 2925 2922 2922 2914 2917 2904 2910 2909 2913 2921 2928 2937 2945 2955 2961 2972 2985 2995 3005 3014 3023 3034 3042 3050 3058 3066 3075 3082 3089 3091 3100 3107 3111 3117 3123
2965 2958 2954 2951 2948 2943 2935 2928 2919 2916 2916 2913 2897 2906 2895 2897 2901 2905 2912 2921 2931 2940 2948 2957 2966 2977 2987 2999 3007 3016 3026 3035 3043 3053 3061 3069 3077 3083 3089 3096 3103 3107 3113 3119
2958 2955 2953 2949 2941 2937 2935 2926 2918 2916 2913 2905 2894 2897 2884 2885 2890 2897 2905 2914 2924 2935 2941 2951 2957 2969 2978 2989 3000 3010 3020 3028 3037 3046 3056 3064 3071 3078 3085 3093 3098 3103 3109 3115
2967 2951 2952 2948 2945 2941 2934 2931 2926 2917 2907 2896 2891 2885 2883 2880 2885 2892 2901 2907 2916 2928 2932 2942 2952 2963 2972 2982 2992 3003 3012 3021 3030 3040 3050 3058 3066 3073 3080 3086 3093 3100 3106 3112
2973 2961 2956 2951 2947 2943 2935 2931 2927 2917 2905 2900 2885 2881 2881 2880 2880 2885 2889 2899 2908 2918 2927 2935 2946 2957 2966 2977 2986 2995 3006 3015 3025 3034 3045 3052 3061 3067 3074 3081 3087 3094 3098 3107
2977 2966 2956 2952 2948 2945 2939 2934 2923 2920 2912 2899 2882 2881 2887 2877 2876 2878 2884 2892 2903 2914 2922 2930 2940 2950 2960 2971 2982 2992 3001 3010 3019 3029 3039 3047 3055 3063 3070 3076 3082 3089 3095 3100
2976 2972 2956 2953 2949 2945 2938 2931 2926 2919 2915 2909 2895 2889 2888 2881 2874 2876 2880 2886 2898 2909 2918 2927 2936 2947 2957 2967 2977 2986 2995 3003 3011 3021 3031 3040 3049 3057 3064 3071 3077 3083 3090 3096
2976 2969 2960 2955 2953 2948 2945 2936 2927 2919 2914 2910 2903 2895 2886 2876 2872 2873 2880 2887 2896 2904 2913 2921 2931 2939 2949 2960 2970 2979 2989 2996 3004 3013 3023 3033 3043 3051 3058 3065 3071 3077 3085 3091
2978 2971 2962 2954 2955 2950 2945 2937 2932 2922 2916 2913 2911 2901 2885 2876 2868 2873 2878 2887 2894 2902 2910 2916 2924 2932 2943 2954 2964 2974 2984 2992 3000 3006 3016 3027 3036 3044 3052 3059 3066 3073 3079 3085
2979 2972 2969 2966 2959 2957 2949 2943 2936 2931 2923 2919 2915 2907 2889 2878 2873 2871 2878 2887 2895 2902 2907 2913 2919 2927 2939 2950 2960 2969 2979 2988 2996 3002 3010 3021 3029 3038 3046 3053 3060 3066 3073 3079
2977 2969 2966 2961 2959 2955 2951 2949 2940 2934 2931 2928 2919 2911 2902 2891 2885 2880 2885 2889 2897 2902 2907 2913 2919 2927 2937 2946 2955 2966 2975 2983 2991 2998 3006 3015 3025 3033 3039 3047 3053 3060 3066 3073
2977 2969 2963 2959 2957 2956 2953 2950 2943 2937 2930 2923 2917 2909 2904 2901 2896 2892 2890 2895 2899 2904 2908 2914 2921 2928 2936 2945 2952 2960 2970 2978 2986 2993 3001 3010 3018 3026 3034 3041 3046 3053 3059 3064
2977 2970 2964 2958 2955 2955 2955 2951 2943 2939 2937 2932 2921 2918 2905 2903 2898 2895 2893 2895 2901 2907 2910 2916 2922 2930 2938 2945 2952 2959 2966 2974 2983 2991 2998 3006 3013 3020 3028 3034 3040 3045 3052 3058
2978 2972 2967 2961 2955 2957 2961 2956 2947 2937 2938 2934 2920 2911 2903 2899 2900 2898 2893 2896 2902 2908 2915 2920 2925 2931 2939 2946 2953 2960 2966 2972 2979 2986 2994 3002 3009 3016 3023 3028 3033 3038 3045 3051
2982 2976 2969 2968 2962 2962 2959 2950 2947 2944 2933 2938 2925 2918 2913 2910 2907 2903 2903 2905 2907 2914 2919 2923 2929 2934 2940 2946 2951 2957 2963 2969 2977 2984 2991 2998 3004 3012 3018 3023 3029 3034 3040 3046
2983 2978 2976 2969 2967 2964 2967 2961 2954 2949 2946 2937 2931 2925 2917 2913 2909 2910 2910 2914 2916 2920 2924 2928 2933 2937 2941 2945 2950 2956 2961 2967 2974 2981 2988 2995 3001 3007 3014 3020 3025 3031 3035 3041
2980 2976 2974 2973 2971 2970 2966 2962 2956 2953 2957 2940 2937 2931 2924 2920 2920 2917 2918 2920 2922 2924 2927 2930 2934 2937 2941 2945 2949 2955 2960 2965 2972 2979 2985 2991 2997 3003 3008 3014 3020 3026 3030 3035
2989 2983 2979 2977 2976 2976 2971 2965 2959 2959 2952 2945 2937 2931 2927 2926 2924 2922 2922 2923 2925 2927 2930 2933 2935 2937 2939 2943 2948 2953 2958 2963 2968 2974 2981 2987 2992 2997 3002 3008 3014 3021 3027 3030
2992 2991 2987 2986 2983 2980 2974 2969 2964 2958 2951 2943 2938 2934 2932 2930 2927 2926 2926 2926 2925 2927 2930 2933 2935 2938 2940 2942 2946 2950 2954 2960 2965 2971 2977 2983 2989 2993 2999 3005 3010 3016 3021 3025
2992 2989 2986 2984 2980 2977 2974 2971 2965 2958 2952 2947 2941 2937 2934 2931 2930 2929 2928 2927 2927 2929 2931 2934 2937 2939 2941 2944 2946 2949 2953 2957 2962 2968 2973 2979 2985 2990 2995 3000 3005 3012 3015 3020
2990 2988 2985 2982 2978 2975 2973 2969 2963 2959 2953 2949 2943 2939 2936 2933 2931 2930 2930 2929 2929 2929 2931 2934 2937 2939 2941 2944 2946 2948 2949 2953 2959 2965 2970 2975 2981 2986 2991 2995 3001 3006 3011 3013
2985 2984 2983 2980 2977 2971 2968 2964 2961 2957 2952 2949 2945 2941 2938 2935 2933 2932 2931 2930 2930 2931 2931 2934 2937 2939 2941 2943 2945 2947 2949 2950 2956 2962 2967 2972 2975 2982 2985 2990 2996 3000 3005 3010